^^
Paulen-Weather Station Historical Data
Daily Summary for January 24, 2020 Units:  Metric    English   Both
Daily Weekly Monthly Yearly Custom
  High: Low: Average:
Temperature: 8 °C 7 °C 7.4 °C
Dew Point: 7 °C 5 °C 6.6 °C
Humidity: 96% 88% 93%
Wind Speed: 24km/h 10km/h 15.9km/h
Wind Gust: 32km/h - -
Wind- - NW
Pressure: 1016.29 hPa 1011.82 hPa -
Precipitation: 0 mm    
Historical Graphs
 
 
Tabular Data for January 24, 2020
Time Temperature Dew Point Pressure Wind Wind Speed Wind Gust Humidity Rainfall Rate (Hourly) solar
00:04 7 °C 7 °C 1016.26 hPa NW 19 km/h 32 km/h 96% 0 mm 0 W/m2
00:09 7 °C 7 °C 1016.29 hPa NW 15 km/h 29 km/h 96% 0 mm 0 W/m2
00:14 7 °C 7 °C 1016.22 hPa NW 19 km/h 21 km/h 96% 0 mm 0 W/m2
00:19 7 °C 7 °C 1016.12 hPa NNW 14 km/h 21 km/h 96% 0 mm 0 W/m2
00:24 7 °C 7 °C 1016.09 hPa NNW 15 km/h 19 km/h 96% 0 mm 0 W/m2
00:29 7 °C 7 °C 1015.95 hPa NNW 19 km/h 19 km/h 96% 0 mm 0 W/m2
00:34 7 °C 7 °C 1015.78 hPa NNW 16 km/h 23 km/h 96% 0 mm 0 W/m2
00:39 7 °C 7 °C 1015.78 hPa NNW 17 km/h 19 km/h 96% 0 mm 0 W/m2
00:44 7 °C 7 °C 1015.68 hPa NNW 16 km/h 21 km/h 96% 0 mm 0 W/m2
00:49 7 °C 7 °C 1015.58 hPa NW 18 km/h 19 km/h 96% 0 mm 0 W/m2
00:54 7 °C 7 °C 1015.54 hPa NNW 19 km/h 26 km/h 96% 0 mm 0 W/m2
00:59 7 °C 7 °C 1015.51 hPa NW 15 km/h 27 km/h 96% 0 mm 0 W/m2
01:04 7 °C 7 °C 1015.44 hPa NW 17 km/h 19 km/h 95% 0 mm 0 W/m2
01:09 7 °C 7 °C 1015.27 hPa NW 16 km/h 24 km/h 95% 0 mm 0 W/m2
01:14 7 °C 7 °C 1015.14 hPa NW 17 km/h 23 km/h 95% 0 mm 0 W/m2
01:19 7 °C 7 °C 1015.14 hPa NNW 14 km/h 19 km/h 95% 0 mm 0 W/m2
01:24 7 °C 7 °C 1014.97 hPa NW 15 km/h 14 km/h 95% 0 mm 0 W/m2
01:29 7 °C 7 °C 1014.9 hPa NNW 12 km/h 16 km/h 95% 0 mm 0 W/m2
01:34 7 °C 7 °C 1014.73 hPa NNW 17 km/h 23 km/h 95% 0 mm 0 W/m2
01:39 7 °C 7 °C 1014.63 hPa NW 17 km/h 21 km/h 95% 0 mm 0 W/m2
01:44 7 °C 7 °C 1014.53 hPa NNW 16 km/h 19 km/h 95% 0 mm 0 W/m2
01:49 8 °C 7 °C 1014.46 hPa N 15 km/h 19 km/h 94% 0 mm 0 W/m2
01:54 8 °C 7 °C 1014.39 hPa NNW 14 km/h 19 km/h 94% 0 mm 0 W/m2
01:59 7 °C 7 °C 1014.29 hPa WSW 17 km/h 23 km/h 94% 0 mm 0 W/m2
02:04 7 °C 7 °C 1014.22 hPa WNW 15 km/h 21 km/h 94% 0 mm 0 W/m2
02:09 7 °C 7 °C 1014.22 hPa NW 13 km/h 21 km/h 94% 0 mm 0 W/m2
02:14 7 °C 7 °C 1014.12 hPa NW 13 km/h 14 km/h 94% 0 mm 0 W/m2
02:19 7 °C 7 °C 1014.12 hPa NW 17 km/h 19 km/h 94% 0 mm 0 W/m2
02:24 7 °C 7 °C 1014.09 hPa NW 14 km/h 19 km/h 94% 0 mm 0 W/m2
02:29 7 °C 7 °C 1013.99 hPa NW 20 km/h 26 km/h 94% 0 mm 0 W/m2
02:34 7 °C 7 °C 1013.85 hPa NNW 16 km/h 26 km/h 94% 0 mm 0 W/m2
02:39 7 °C 7 °C 1013.82 hPa NNW 18 km/h 21 km/h 94% 0 mm 0 W/m2
02:44 7 °C 7 °C 1013.72 hPa W 11 km/h 27 km/h 94% 0 mm 0 W/m2
02:49 7 °C 7 °C 1013.68 hPa NW 17 km/h 13 km/h 94% 0 mm 0 W/m2
02:54 7 °C 7 °C 1013.61 hPa NW 17 km/h 23 km/h 94% 0 mm 0 W/m2
02:59 7 °C 7 °C 1013.58 hPa NNW 22 km/h 23 km/h 94% 0 mm 0 W/m2
03:04 7 °C 7 °C 1013.55 hPa NNW 19 km/h 24 km/h 94% 0 mm 0 W/m2
03:09 7 °C 7 °C 1013.48 hPa N 19 km/h 23 km/h 94% 0 mm 0 W/m2
03:14 7 °C 7 °C 1013.44 hPa N 16 km/h 24 km/h 94% 0 mm 0 W/m2
03:19 7 °C 7 °C 1013.31 hPa N 19 km/h 23 km/h 94% 0 mm 0 W/m2
03:24 7 °C 7 °C 1013.21 hPa NNW 19 km/h 21 km/h 94% 0 mm 0 W/m2
03:29 7 °C 7 °C 1013.21 hPa N 19 km/h 32 km/h 94% 0 mm 0 W/m2
03:34 7 °C 7 °C 1013.17 hPa NW 16 km/h 21 km/h 94% 0 mm 0 W/m2
03:39 8 °C 7 °C 1013.14 hPa NNW 24 km/h 24 km/h 94% 0 mm 0 W/m2
03:44 7 °C 7 °C 1013.11 hPa WNW 19 km/h 27 km/h 94% 0 mm 0 W/m2
03:49 7 °C 7 °C 1013.07 hPa WNW 16 km/h 26 km/h 94% 0 mm 0 W/m2
03:54 7 °C 7 °C 1012.97 hPa NW 18 km/h 16 km/h 94% 0 mm 0 W/m2
03:59 8 °C 7 °C 1012.97 hPa NNW 20 km/h 24 km/h 94% 0 mm 0 W/m2
04:04 8 °C 7 °C 1012.9 hPa N 18 km/h 24 km/h 94% 0 mm 0 W/m2
04:09 8 °C 7 °C 1012.97 hPa NNW 14 km/h 21 km/h 94% 0 mm 0 W/m2
04:14 8 °C 7 °C 1012.9 hPa NW 15 km/h 19 km/h 94% 0 mm 0 W/m2
04:19 8 °C 7 °C 1012.84 hPa NW 17 km/h 23 km/h 94% 0 mm 0 W/m2
04:24 8 °C 7 °C 1012.8 hPa NW 15 km/h 19 km/h 94% 0 mm 0 W/m2
04:29 8 °C 7 °C 1012.8 hPa NNW 15 km/h 19 km/h 94% 0 mm 0 W/m2
04:34 8 °C 7 °C 1012.73 hPa NW 16 km/h 19 km/h 93% 0 mm 0 W/m2
04:39 8 °C 7 °C 1012.7 hPa NW 12 km/h 19 km/h 93% 0 mm 0 W/m2
04:44 8 °C 7 °C 1012.63 hPa NNW 13 km/h 16 km/h 93% 0 mm 0 W/m2
04:49 8 °C 7 °C 1012.6 hPa NNW 15 km/h 19 km/h 93% 0 mm 0 W/m2
04:54 8 °C 7 °C 1012.63 hPa WNW 14 km/h 19 km/h 93% 0 mm 0 W/m2
04:59 8 °C 7 °C 1012.7 hPa NNW 14 km/h 16 km/h 93% 0 mm 0 W/m2
05:04 8 °C 7 °C 1012.53 hPa NNW 14 km/h 19 km/h 92% 0 mm 0 W/m2
05:09 8 °C 6 °C 1012.53 hPa NW 15 km/h 19 km/h 92% 0 mm 0 W/m2
05:14 8 °C 6 °C 1012.46 hPa NNW 17 km/h 26 km/h 92% 0 mm 0 W/m2
05:19 8 °C 6 °C 1012.5 hPa NW 17 km/h 21 km/h 92% 0 mm 0 W/m2
05:24 8 °C 6 °C 1012.5 hPa NNW 20 km/h 24 km/h 92% 0 mm 0 W/m2
05:29 8 °C 6 °C 1012.53 hPa NW 16 km/h 24 km/h 91% 0 mm 0 W/m2
05:34 8 °C 6 °C 1012.53 hPa NW 16 km/h 19 km/h 91% 0 mm 0 W/m2
05:39 8 °C 6 °C 1012.23 hPa NNW 18 km/h 19 km/h 91% 0 mm 0 W/m2
05:44 8 °C 6 °C 1011.99 hPa WNW 16 km/h 23 km/h 91% 0 mm 0 W/m2
05:49 8 °C 6 °C 1012.02 hPa N 21 km/h 19 km/h 91% 0 mm 0 W/m2
05:54 8 °C 6 °C 1011.85 hPa N 22 km/h 27 km/h 92% 0 mm 0 W/m2
05:59 8 °C 6 °C 1011.82 hPa NNW 20 km/h 26 km/h 92% 0 mm 0 W/m2
06:04 8 °C 6 °C 1011.85 hPa NNW 20 km/h 24 km/h 92% 0 mm 0 W/m2
06:09 8 °C 6 °C 1011.82 hPa WNW 16 km/h 26 km/h 92% 0 mm 0 W/m2
06:14 8 °C 6 °C 1012.02 hPa NW 19 km/h 21 km/h 92% 0 mm 0 W/m2
06:19 8 °C 7 °C 1012.12 hPa WNW 17 km/h 23 km/h 93% 0 mm 0 W/m2
06:24 8 °C 7 °C 1012.12 hPa NNW 16 km/h 19 km/h 93% 0 mm 0 W/m2
06:29 8 °C 7 °C 1012.06 hPa WNW 14 km/h 19 km/h 93% 0 mm 0 W/m2
06:34 8 °C 6 °C 1011.99 hPa NW 14 km/h 23 km/h 92% 0 mm 0 W/m2
06:39 7 °C 6 °C 1011.95 hPa NW 13 km/h 16 km/h 92% 0 mm 0 W/m2
06:44 7 °C 6 °C 1011.85 hPa NNW 15 km/h 19 km/h 92% 0 mm 0 W/m2
06:49 7 °C 6 °C 1011.89 hPa NW 17 km/h 19 km/h 92% 0 mm 0 W/m2
06:54 8 °C 6 °C 1011.95 hPa NW 16 km/h 26 km/h 92% 0 mm 0 W/m2
06:59 8 °C 6 °C 1011.99 hPa NW 21 km/h 19 km/h 92% 0 mm 0 W/m2
07:04 8 °C 6 °C 1011.99 hPa WNW 12 km/h 27 km/h 91% 0 mm 0 W/m2
07:09 8 °C 6 °C 1011.95 hPa NW 11 km/h 16 km/h 91% 0 mm 0 W/m2
07:14 8 °C 6 °C 1012.02 hPa WNW 19 km/h 27 km/h 91% 0 mm 0 W/m2
07:19 8 °C 6 °C 1012.16 hPa WNW 10 km/h 19 km/h 91% 0 mm 0 W/m2
07:24 7 °C 6 °C 1012.26 hPa NW 12 km/h 14 km/h 91% 0 mm 0 W/m2
07:29 7 °C 6 °C 1012.26 hPa NW 13 km/h 14 km/h 91% 0 mm 0 W/m2
07:34 7 °C 6 °C 1012.36 hPa NW 12 km/h 14 km/h 90% 0 mm 0 W/m2
07:39 7 °C 6 °C 1012.36 hPa WNW 13 km/h 16 km/h 90% 0 mm 0 W/m2
07:44 7 °C 6 °C 1012.36 hPa NW 10 km/h 19 km/h 89% 0 mm 0 W/m2
07:49 7 °C 6 °C 1012.36 hPa NW 10 km/h 11 km/h 89% 0 mm 0 W/m2
07:54 7 °C 6 °C 1012.29 hPa NW 13 km/h 13 km/h 89% 0 mm 0 W/m2
07:59 7 °C 6 °C 1012.23 hPa NNW 16 km/h 21 km/h 90% 0 mm 0 W/m2
08:04 7 °C 6 °C 1012.26 hPa NW 16 km/h 19 km/h 90% 0 mm 0 W/m2
08:09 7 °C 6 °C 1012.19 hPa WNW 12 km/h 19 km/h 90% 0 mm 0 W/m2
08:14 7 °C 6 °C 1012.09 hPa NW 15 km/h 14 km/h 90% 0 mm 0 W/m2
08:19 7 °C 6 °C 1012.12 hPa NW 15 km/h 19 km/h 90% 0 mm 0 W/m2
08:24 7 °C 6 °C 1012.19 hPa NW 15 km/h 19 km/h 91% 0 mm 0 W/m2
08:29 7 °C 6 °C 1012.19 hPa NW 17 km/h 19 km/h 91% 0 mm 0 W/m2
08:34 7 °C 6 °C 1012.19 hPa NW 13 km/h 21 km/h 90% 0 mm 0 W/m2
08:39 7 °C 6 °C 1012.09 hPa NNW 16 km/h 14 km/h 90% 0 mm 0 W/m2
08:44 7 °C 6 °C 1012.02 hPa NNW 14 km/h 19 km/h 90% 0 mm 0 W/m2
08:49 7 °C 5 °C 1012.02 hPa NW 13 km/h 14 km/h 89% 0 mm 0 W/m2
08:54 7 °C 5 °C 1012.06 hPa NW 15 km/h 19 km/h 89% 0 mm 5 W/m2
08:59 7 °C 5 °C 1011.99 hPa NNW 14 km/h 19 km/h 88% 0 mm 5 W/m2
Compliments of Weather Underground - 2 mb